TITAN 3C TRANSTAGE DEB, 26528

Orbit data source: Space-Track

TITAN 3C TRANSTAGE DEB, 26528 is space debris in HEO originally from a launch on Tue, 21 Dec 1965 UTC launched from the Air Force Eastern Test Range (AFETR). Debris objects in space refer to the collection of defunct objects orbiting the Earth. Examples of debris include non-operational satellites, rocket bodies, and fragments generated from explosions, collisions, or faulty payload assembly.

Loading next visibility...
TITAN 3C TRANSTAGE DEB details
Identifier
26528, 1965-108AP
Orbit
HEO
Last TLE update3 months ago
Origin
Flag of USUSAF SSD (US)
ManufacturerUnknown
MissionSpacecraft
Bus & MotorUnknown
MassUnknown
Launch date (UTC)
1965-12-21 (59 years ago)
Launch vehicleUnknown
Launch site
Air Force Eastern Test Range (AFETR)
Object type
Payload
Rocket body
Debris
Shape & HBRUnknown
Radar Cross SectionMedium (>0.1 m² and <1 m²)

Expand to show TLE details & history

TLE from 3 months ago
0 TITAN 3C TRANSTAGE DEB
1 26528U 65108AP  24272.21230931 -.00000217  00000-0 -10557-1 0  9992
2 26528  27.0100 168.0673 6687344 259.5646 335.7119  2.67991603251629
Epoch: 2024-09-28T05:05Z
Definitive object data (Epoch: 2024-09-28T05:05:43.524Z)
Latitude9.16287°
Longitude-114.16436°
Altitude7,323.799 km
Speed6.323 km/s
True Right ascension21h 58m 57s
True Declination9° 08' 05"
Sunlit
Object was in daylight at TLE epoch
Visualization TLE readout
Latitude4.55691°
Longitude-138.63185°
Altitude20,431.29 km
Speed3.396 km/s
Apparent Right ascension19h 51m 56s
Apparent Declination-3° 42' 09"
Sunlit
Object is in daylight
Visualization observer readout
Local Sidereal Time04:56:49
Azimuth300.872° NW
Elevation-36.444°
Doppler factor1
Orbital elements
Apogee altitude30,162.456 km
Perigee altitude875.648 km
Semi-major axis21,897.189 km
Eccentricity0.6687344
Inclination27.01°
RAAN168.0673°
Arg. of periapsis259.5646°
True anomaly259.82209°
Mean anomaly335.7119°
Eccentric anomaly303.91505°
Mean motion0.66982 °/min
BSTAR-0.010557
Orbital period537.45 mins
Loading maneuver chart data...

TITAN 3C TRANSTAGE DEB Visibility forecast

Observer location: undefined°, undefined

Span
Click to sort rows by Start time (UTC) header in descending order
Start Az.
Max El. time (UTC)
Max El. Az.
Max El.
End time (UTC)
End Az.
458 mins2024-12-22 17:15:09.258Z268.496° W2024-12-22 19:07:09.258Z242.725° WSW40.183°2024-12-23 00:53:09.258Z206.083° SW
|